User: anonymous   Login
Location: Unspecified
(0.0000°N, 0.0000°E)
Time: 10:41:03
(UTC+00:00)
Language:

TACSAT 4 - Orbit

View from above orbital plane
View from above orbital plane
View from above satellite
View from above satellite

Ground track
Ground track

The orbit data is extracted from the following two-line orbital elements,

1 37818U 11052A   18019.38856435 -.00000565 +00000-0 -12868-2 0  9992
2 37818 063.2735 338.1000 4545256 215.0721 342.8127 06.02782045138877
Epoch (UTC): 19 January 2018 09:19:31
Eccentricity: 0.4545256
inclination: 63.2735°
perigee height: 578 km
apogee height: 12172 km
right ascension of ascending node: 338.1000°
argument of perigee: 215.0721°
revolutions per day: 6.02782045
mean anomaly at epoch: 342.8127°
orbit number at epoch: 13887

The dashed part of the orbit path shows where the satellite is in the earth's shadow,  

DLR